SCP
0 0 0 0 0 0 0 0 0 0 0 0 0 0 0 0 0 0 0 0 0 0 0 0 0 0 0 0 0 0 0 0
0 0 0 0 0 0 0 0 0 0 0 0 0 0 0 0 0 0 0 0 0 0 0 0 0 0 0 0 0 0 0 0
0 -0 0 0 0 0 0 0 0 0 0 0 0 0 0 0 0 0 0 0 0 0 0 0 0 0 0 0 0 0 0 0
-0 -0 0 0 0 0 0 0 0 0 0 0 0 0 0 0 0 0 0 0 0 0 0 0 0 0 0 0 0 0 0 0
0 0 0 0 0 0 0 0 0 0 0 0 0 0 0 0 0 0 0 0 0 0 0 0 0 0 0 0 0 0 0 0
0 0 0 0 0 0 0 0 0 0 0 0 0 0 0 0 0 0 0 0 0 0 0 0 0 0 0 0 0 0 0 0
0 0 0 0 0 0 0 0 0 0 0 -0 0 0 0 0 0 0 0 0 0 0 0 0 0 0 0 0 0 0 0 0
0 0 0 0 0 0 0 0 0 0 0 0 -0 0 0 0 0 0 0 0 0 0 0 0 0 0 0 0 0 0 0 0
0 0 0 0 0 0 0 0 0 0 0 -0 -0 0 0 0 0 0 0 0 0 0 0 0 0 0 0 0 0 0 0 0
0 0 0 0 0 0 0 0 0 0 0 -0 -0 0 0 0 0 0 0 0 0 0 0 -0 0 0 0 0 0 0 0 0
0 0 0 0 0 0 0 0 0 0 0 0 0 -0 0 0 0 0 0 0 0 0 0 0 0 0 0 0 0 0 0 0
0 0 0 0 0 0 0 0 0 0 0 0 -0 0 0 0 0 0 0 0 0 0 0 0 0 0 0 0 0 0 0 0
0 0 0 0 0 0 0 0 0 0 0 0 0 0 -0 0 0 0 0 0 0 0 0 0 0 0 0 0 0 0 0 0
-0 0 0 0 0 0 0 0 0 0 0 0 0 0 -0 0 0 0 0 0 0 0 0 0 0 0 0 0 0 0 0 0
-0 -0 0 0 0 0 0 0 0 0 0 0 0 0 0 0 0 0 0 0 0 0 0 0 0 0 0 0 0 0 0 0
-0 -0 0 -0 0 0 0 0 0 0 0 0 0 0 0 0 0 0 0 0 0 0 0 0 0 0 0 0 0 0 0 0
-0 -0 -0 0 -0 -0 -0 0 0 0 0 0 0 0 0 0 0 0 0 0 0 0 0 0 0 0 0 0 0 0 0 0
0 -0 -0 -0 0 -0 -0 -0 -0 0 0 0 0 0 0 0 0 0 0 -0 -0 -0 -0 -0 -0 0 0 0 0 0 0 0
0 0 -0 -0 -0 -0 -0 -0 -0 -0 -0 0 0 0 0 0 0 0 0 0 0 -0 0 -0 -0 -0 -0 0 0 0 0 0
0 0 0 0 0 -0 -0 -0 0 0 -0 0 -0 -0 -0 -0 -0 -0 0 0 0 0 0 0 -0 -0 -0 0 0 0 0 0
Wind_Speed_500mb
79 78 74 71 72 70 69 73 74 77 81 85 87 87 87 84 89 85 85 86 83 85 82 75 71 71 81 96 90 96 96 86
76 74 72 75 75 76 76 74 75 75 78 83 86 84 78 83 92 87 84 85 84 89 91 70 64 70 84 92 95 103 92 92
76 77 79 80 82 84 80 77 71 70 74 81 82 76 85 93 93 90 92 84 89 86 95 93 80 63 85 98 93 102 103 90
78 80 82 85 90 90 81 78 72 66 68 76 82 80 85 90 88 87 89 92 84 88 90 100 95 83 86 103 98 103 103 89
80 83 85 91 91 91 86 76 76 72 69 69 72 78 83 84 86 84 83 83 88 80 90 82 82 83 89 100 100 101 102 96
83 87 87 95 99 99 91 79 75 69 64 62 62 68 73 78 79 79 77 83 96 77 89 81 81 84 97 109 97 105 106 96
83 85 90 95 100 106 99 85 78 77 77 55 41 57 66 70 70 70 76 77 102 79 77 92 83 88 98 105 108 107 102 100
82 86 89 95 98 102 106 90 85 85 85 68 15 31 43 48 53 65 75 79 102 76 72 87 90 93 105 103 112 101 97 94
78 84 86 93 97 102 107 95 95 97 98 87 49 18 25 40 49 58 56 72 94 72 71 84 89 85 102 95 107 96 100 100
72 77 84 90 94 101 104 103 103 107 107 94 83 63 47 42 38 34 37 57 58 66 68 71 83 115 106 110 107 98 99 97
71 75 81 88 91 97 103 109 107 104 105 98 95 88 71 53 41 44 50 55 41 50 67 77 100 102 104 99 95 89 82 80
62 71 78 84 87 92 96 104 103 102 103 108 102 101 92 87 85 83 77 66 65 55 68 89 94 87 77 78 78 78 75 72
58 67 73 80 85 88 89 89 95 96 101 109 107 109 102 102 91 86 76 89 86 98 97 88 88 87 85 81 81 77 73 64
49 55 65 74 79 83 81 82 88 90 98 99 105 112 116 113 106 107 95 94 82 94 111 99 99 93 89 86 83 75 71 62
42 50 57 66 71 72 75 76 80 84 90 96 101 103 108 112 108 100 99 101 102 109 100 93 108 104 92 86 80 72 67 59
34 41 48 54 62 68 71 74 78 80 82 87 90 93 96 98 98 100 99 100 101 88 96 95 94 84 83 83 82 82 77 71
23 29 37 44 50 56 64 69 72 77 80 79 80 81 84 88 89 85 92 93 89 87 90 86 82 75 69 65 65 64 61 66
17 20 28 34 39 45 53 59 64 68 70 71 74 77 79 81 82 86 84 82 88 89 83 77 74 69 70 67 62 55 49 58
13 13 18 24 31 38 42 47 52 56 61 65 67 69 71 71 71 73 75 80 81 76 74 68 67 63 59 57 56 61 58 57
13 9 10 15 21 28 34 38 42 47 52 55 57 59 59 60 61 63 64 67 64 62 69 66 58 55 54 52 59 62 59 55
Wind_Direction_500mb
335 331 326 324 323 320 313 306 299 292 285 280 274 269 263 258 253 249 248 245 238 239 234 241 237 232 225 222 224 222 222 220
334 331 329 331 330 326 321 314 304 296 289 281 275 269 259 254 250 245 241 240 240 236 230 232 238 231 221 219 218 220 219 215
336 337 336 337 337 333 327 318 309 299 289 278 273 265 259 254 249 244 234 235 236 228 227 227 227 229 222 211 218 220 212 213
342 343 341 341 340 338 331 324 318 310 295 283 275 266 257 252 246 241 237 230 231 221 225 228 226 232 220 220 218 221 218 218
344 346 345 342 342 341 340 335 328 319 304 289 275 264 254 249 243 237 230 225 219 222 224 226 226 226 222 220 214 220 217 216
346 346 345 345 347 349 349 345 340 331 329 313 290 264 250 242 235 229 223 221 210 218 221 222 224 224 218 217 218 217 218 212
348 348 347 350 350 355 355 353 350 352 342 339 289 255 240 231 226 221 217 219 205 213 218 219 222 225 218 215 217 217 215 209
348 349 350 353 355 0 360 2 7 2 2 12 322 244 224 214 214 211 210 207 205 213 218 219 221 221 214 214 219 216 213 205
349 351 357 359 2 8 10 15 18 9 16 29 49 167 183 197 205 207 203 210 206 214 221 219 223 219 215 215 215 215 209 203
351 355 2 4 8 13 14 21 26 26 24 28 42 81 130 166 182 178 188 198 211 216 220 217 216 213 218 209 206 202 199 198
354 358 6 9 13 18 16 24 28 33 30 33 47 68 86 111 132 161 179 186 201 190 198 204 204 200 208 202 194 188 185 189
358 2 6 10 17 23 23 27 30 38 48 47 53 57 72 91 98 105 124 128 129 160 160 171 176 183 176 176 171 171 169 178
2 4 8 12 19 26 28 32 36 40 47 53 57 61 67 78 81 85 104 106 103 106 107 119 140 145 147 146 141 146 150 151
5 6 9 15 17 26 31 35 40 43 49 55 60 60 64 64 76 77 75 79 79 88 90 94 112 120 122 125 130 133 129 133
7 7 15 16 18 23 31 37 45 46 49 52 58 64 64 63 59 61 70 77 70 78 85 87 97 105 111 117 124 126 124 126
5 11 12 18 20 19 26 34 41 48 49 55 57 58 62 66 59 61 60 71 77 72 81 81 83 94 104 107 109 114 116 118
3 12 12 17 23 23 22 27 33 42 47 49 56 61 64 65 67 71 79 72 72 77 83 82 86 90 94 97 103 111 120 121
340 15 17 14 21 30 27 24 29 35 42 45 49 52 55 62 67 67 65 68 74 76 80 82 84 87 93 99 102 106 118 112
308 351 20 19 19 25 32 29 27 31 37 41 43 48 51 53 57 63 67 69 70 71 76 75 81 84 87 90 97 97 96 96
275 306 353 24 25 27 28 29 29 29 34 36 38 42 49 52 53 54 55 60 67 73 70 67 73 80 89 96 95 95 93 94
Wind_Speed_850mb
79 78 74 71 72 70 69 73 74 77 81 85 87 87 87 84 89 85 85 86 83 85 82 75 71 71 81 96 90 96 96 86
76 74 72 75 75 76 76 74 75 75 78 83 86 84 78 83 92 87 84 85 84 89 91 70 64 70 84 92 95 103 92 92
76 77 79 80 82 84 80 77 71 70 74 81 82 76 85 93 93 90 92 84 89 86 95 93 80 63 85 98 93 102 103 90
78 80 82 85 90 90 81 78 72 66 68 76 82 80 85 90 88 87 89 92 84 88 90 100 95 83 86 103 98 103 103 89
80 83 85 91 91 91 86 76 76 72 69 69 72 78 83 84 86 84 83 83 88 80 90 82 82 83 89 100 100 101 102 96
83 87 87 95 99 99 91 79 75 69 64 62 62 68 73 78 79 79 77 83 96 77 89 81 81 84 97 109 97 105 106 96
83 85 90 95 100 106 99 85 78 77 77 55 41 57 66 70 70 70 76 77 102 79 77 92 83 88 98 105 108 107 102 100
82 86 89 95 98 102 106 90 85 85 85 68 15 31 43 48 53 65 75 79 102 76 72 87 90 93 105 103 112 101 97 94
78 84 86 93 97 102 107 95 95 97 98 87 49 18 25 40 49 58 56 72 94 72 71 84 89 85 102 95 107 96 100 100
72 77 84 90 94 101 104 103 103 107 107 94 83 63 47 42 38 34 37 57 58 66 68 71 83 115 106 110 107 98 99 97
71 75 81 88 91 97 103 109 107 104 105 98 95 88 71 53 41 44 50 55 41 50 67 77 100 102 104 99 95 89 82 80
62 71 78 84 87 92 96 104 103 102 103 108 102 101 92 87 85 83 77 66 65 55 68 89 94 87 77 78 78 78 75 72
58 67 73 80 85 88 89 89 95 96 101 109 107 109 102 102 91 86 76 89 86 98 97 88 88 87 85 81 81 77 73 64
49 55 65 74 79 83 81 82 88 90 98 99 105 112 116 113 106 107 95 94 82 94 111 99 99 93 89 86 83 75 71 62
42 50 57 66 71 72 75 76 80 84 90 96 101 103 108 112 108 100 99 101 102 109 100 93 108 104 92 86 80 72 67 59
34 41 48 54 62 68 71 74 78 80 82 87 90 93 96 98 98 100 99 100 101 88 96 95 94 84 83 83 82 82 77 71
23 29 37 44 50 56 64 69 72 77 80 79 80 81 84 88 89 85 92 93 89 87 90 86 82 75 69 65 65 64 61 66
17 20 28 34 39 45 53 59 64 68 70 71 74 77 79 81 82 86 84 82 88 89 83 77 74 69 70 67 62 55 49 58
13 13 18 24 31 38 42 47 52 56 61 65 67 69 71 71 71 73 75 80 81 76 74 68 67 63 59 57 56 61 58 57
13 9 10 15 21 28 34 38 42 47 52 55 57 59 59 60 61 63 64 67 64 62 69 66 58 55 54 52 59 62 59 55
Wind_Direction_850mb
335 331 326 324 323 320 313 306 299 292 285 280 274 269 263 258 253 249 248 245 238 239 234 241 237 232 225 222 224 222 222 220
334 331 329 331 330 326 321 314 304 296 289 281 275 269 259 254 250 245 241 240 240 236 230 232 238 231 221 219 218 220 219 215
336 337 336 337 337 333 327 318 309 299 289 278 273 265 259 254 249 244 234 235 236 228 227 227 227 229 222 211 218 220 212 213
342 343 341 341 340 338 331 324 318 310 295 283 275 266 257 252 246 241 237 230 231 221 225 228 226 232 220 220 218 221 218 218
344 346 345 342 342 341 340 335 328 319 304 289 275 264 254 249 243 237 230 225 219 222 224 226 226 226 222 220 214 220 217 216
346 346 345 345 347 349 349 345 340 331 329 313 290 264 250 242 235 229 223 221 210 218 221 222 224 224 218 217 218 217 218 212
348 348 347 350 350 355 355 353 350 352 342 339 289 255 240 231 226 221 217 219 205 213 218 219 222 225 218 215 217 217 215 209
348 349 350 353 355 0 360 2 7 2 2 12 322 244 224 214 214 211 210 207 205 213 218 219 221 221 214 214 219 216 213 205
349 351 357 359 2 8 10 15 18 9 16 29 49 167 183 197 205 207 203 210 206 214 221 219 223 219 215 215 215 215 209 203
351 355 2 4 8 13 14 21 26 26 24 28 42 81 130 166 182 178 188 198 211 216 220 217 216 213 218 209 206 202 199 198
354 358 6 9 13 18 16 24 28 33 30 33 47 68 86 111 132 161 179 186 201 190 198 204 204 200 208 202 194 188 185 189
358 2 6 10 17 23 23 27 30 38 48 47 53 57 72 91 98 105 124 128 129 160 160 171 176 183 176 176 171 171 169 178
2 4 8 12 19 26 28 32 36 40 47 53 57 61 67 78 81 85 104 106 103 106 107 119 140 145 147 146 141 146 150 151
5 6 9 15 17 26 31 35 40 43 49 55 60 60 64 64 76 77 75 79 79 88 90 94 112 120 122 125 130 133 129 133
7 7 15 16 18 23 31 37 45 46 49 52 58 64 64 63 59 61 70 77 70 78 85 87 97 105 111 117 124 126 124 126
5 11 12 18 20 19 26 34 41 48 49 55 57 58 62 66 59 61 60 71 77 72 81 81 83 94 104 107 109 114 116 118
3 12 12 17 23 23 22 27 33 42 47 49 56 61 64 65 67 71 79 72 72 77 83 82 86 90 94 97 103 111 120 121
340 15 17 14 21 30 27 24 29 35 42 45 49 52 55 62 67 67 65 68 74 76 80 82 84 87 93 99 102 106 118 112
308 351 20 19 19 25 32 29 27 31 37 41 43 48 51 53 57 63 67 69 70 71 76 75 81 84 87 90 97 97 96 96
275 306 353 24 25 27 28 29 29 29 34 36 38 42 49 52 53 54 55 60 67 73 70 67 73 80 89 96 95 95 93 94